Year,Month,Day,Hour,Minute,Value (Times are PST for temperature in C)
2002,05,13,00,00,14.10
2002,05,13,00,01,14.10
2002,05,13,00,02,14.10
2002,05,13,00,03,14.00
2002,05,13,00,04,14.00
2002,05,13,00,05,14.00
2002,05,13,00,06,14.00
2002,05,13,00,07,14.00
2002,05,13,00,08,14.00
2002,05,13,00,09,13.90
2002,05,13,00,10,13.80
2002,05,13,00,11,13.70
2002,05,13,00,12,13.60
2002,05,13,00,13,13.60
2002,05,13,00,14,13.50
2002,05,13,00,15,13.40
2002,05,13,00,16,13.30
2002,05,13,00,17,13.30
2002,05,13,00,18,13.30
2002,05,13,00,19,13.30
2002,05,13,00,20,13.30
2002,05,13,00,21,13.30
2002,05,13,00,22,13.30
2002,05,13,00,23,13.30
2002,05,13,00,24,13.20
2002,05,13,00,25,13.20
2002,05,13,00,26,13.20
2002,05,13,00,27,13.10
2002,05,13,00,28,13.10
2002,05,13,00,29,13.10
2002,05,13,00,30,13.10
2002,05,13,00,31,13.10
2002,05,13,00,32,13.10
2002,05,13,00,33,13.10
2002,05,13,00,34,13.00
2002,05,13,00,35,13.00
2002,05,13,00,36,13.00
2002,05,13,00,37,13.00
2002,05,13,00,38,13.00
2002,05,13,00,39,13.00
2002,05,13,00,40,13.00
2002,05,13,00,41,13.00
2002,05,13,00,42,13.00
2002,05,13,00,43,13.00
2002,05,13,00,44,12.90
2002,05,13,00,45,12.90
2002,05,13,00,46,12.90
2002,05,13,00,47,12.90
2002,05,13,00,48,12.80
2002,05,13,00,49,12.80
2002,05,13,00,50,12.80
2002,05,13,00,51,12.80
2002,05,13,00,52,12.80
2002,05,13,00,53,12.80
2002,05,13,00,54,12.80
2002,05,13,00,55,12.80
2002,05,13,00,56,12.80
2002,05,13,00,57,12.80
2002,05,13,00,58,12.80
2002,05,13,00,59,12.80
2002,05,13,01,00,12.80
2002,05,13,01,01,12.80
2002,05,13,01,02,12.90
2002,05,13,01,03,12.90
2002,05,13,01,04,12.90
2002,05,13,01,05,12.90
2002,05,13,01,06,12.90
2002,05,13,01,07,12.90
2002,05,13,01,08,13.00
2002,05,13,01,09,13.00
2002,05,13,01,10,13.00
2002,05,13,01,11,13.00
2002,05,13,01,12,13.10
2002,05,13,01,13,13.10
2002,05,13,01,14,13.10
2002,05,13,01,15,13.10
2002,05,13,01,16,13.10
2002,05,13,01,17,13.10
2002,05,13,01,18,13.20
2002,05,13,01,19,13.20
2002,05,13,01,20,13.20
2002,05,13,01,21,13.20
2002,05,13,01,22,13.20
2002,05,13,01,23,13.20
2002,05,13,01,24,13.20
2002,05,13,01,25,13.30
2002,05,13,01,26,13.30
2002,05,13,01,27,13.30
2002,05,13,01,28,13.30
2002,05,13,01,29,13.30
2002,05,13,01,30,13.30
2002,05,13,01,31,13.30
2002,05,13,01,32,13.20
2002,05,13,01,33,13.20
2002,05,13,01,34,13.20
2002,05,13,01,35,13.20
2002,05,13,01,36,13.20
2002,05,13,01,37,13.20
2002,05,13,01,38,13.20
2002,05,13,01,39,13.20
2002,05,13,01,40,13.20
2002,05,13,01,41,13.20
2002,05,13,01,42,13.10
2002,05,13,01,43,13.10
2002,05,13,01,44,13.10
2002,05,13,01,45,13.10
2002,05,13,01,46,13.10
2002,05,13,01,47,13.10
2002,05,13,01,48,13.10
2002,05,13,01,49,13.10
2002,05,13,01,50,13.10
2002,05,13,01,51,13.00
2002,05,13,01,52,13.00
2002,05,13,01,53,13.00
2002,05,13,01,54,13.00
2002,05,13,01,55,13.00
2002,05,13,01,56,13.00
2002,05,13,01,57,13.00
2002,05,13,01,58,13.00
2002,05,13,01,59,13.00
2002,05,13,02,00,13.00
2002,05,13,02,01,13.00
2002,05,13,02,02,13.00
2002,05,13,02,03,13.00
2002,05,13,02,04,13.00
2002,05,13,02,05,13.00
2002,05,13,02,06,13.00
2002,05,13,02,07,13.00
2002,05,13,02,08,13.00
2002,05,13,02,09,13.00
2002,05,13,02,10,13.00
2002,05,13,02,11,13.00
2002,05,13,02,12,12.90
2002,05,13,02,13,12.90
2002,05,13,02,14,12.90
2002,05,13,02,15,13.00
2002,05,13,02,16,13.00
2002,05,13,02,17,13.00
2002,05,13,02,18,13.00
2002,05,13,02,19,13.00
2002,05,13,02,20,13.00
2002,05,13,02,21,13.00
2002,05,13,02,22,13.00
2002,05,13,02,23,13.10
2002,05,13,02,24,13.10
2002,05,13,02,25,13.10
2002,05,13,02,26,13.10
2002,05,13,02,27,13.10
2002,05,13,02,28,13.20
2002,05,13,02,29,13.20
2002,05,13,02,30,13.20
2002,05,13,02,31,13.30
2002,05,13,02,32,13.30
2002,05,13,02,33,13.30
2002,05,13,02,34,13.30
2002,05,13,02,35,13.30
2002,05,13,02,36,13.30
2002,05,13,02,37,13.40
2002,05,13,02,38,13.40
2002,05,13,02,39,13.40
2002,05,13,02,40,13.40
2002,05,13,02,41,13.40
2002,05,13,02,42,13.40
2002,05,13,02,43,13.40
2002,05,13,02,44,13.50
2002,05,13,02,45,13.50
2002,05,13,02,46,13.50
2002,05,13,02,47,13.50
2002,05,13,02,48,13.50
2002,05,13,02,49,13.50
2002,05,13,02,50,13.50
2002,05,13,02,51,13.50
2002,05,13,02,52,13.50
2002,05,13,02,53,13.50
2002,05,13,02,54,13.50
2002,05,13,02,55,13.60
2002,05,13,02,56,13.60
2002,05,13,02,57,13.60
2002,05,13,02,58,13.60
2002,05,13,02,59,13.60
2002,05,13,03,00,13.70
2002,05,13,03,01,13.60
2002,05,13,03,02,13.60
2002,05,13,03,03,13.60
2002,05,13,03,04,13.60
2002,05,13,03,05,13.60
2002,05,13,03,06,13.50
2002,05,13,03,07,13.50
2002,05,13,03,08,13.40
2002,05,13,03,09,13.40
2002,05,13,03,10,13.30
2002,05,13,03,11,13.30
2002,05,13,03,12,13.20
2002,05,13,03,13,13.10
2002,05,13,03,14,13.00
2002,05,13,03,15,13.00
2002,05,13,03,16,12.90
2002,05,13,03,17,12.80
2002,05,13,03,18,12.80
2002,05,13,03,19,12.70
2002,05,13,03,20,12.60
2002,05,13,03,21,12.60
2002,05,13,03,22,12.50
2002,05,13,03,23,12.50
2002,05,13,03,24,12.50
2002,05,13,03,25,12.40
2002,05,13,03,26,12.40
2002,05,13,03,27,12.30
2002,05,13,03,28,12.20
2002,05,13,03,29,12.20
2002,05,13,03,30,12.10
2002,05,13,03,31,12.10
2002,05,13,03,32,12.10
2002,05,13,03,33,12.10
2002,05,13,03,34,12.10
2002,05,13,03,35,12.00
2002,05,13,03,36,12.00
2002,05,13,03,37,12.00
2002,05,13,03,38,12.00
2002,05,13,03,39,11.90
2002,05,13,03,40,11.90
2002,05,13,03,41,11.90
2002,05,13,03,42,11.90
2002,05,13,03,43,11.80
2002,05,13,03,44,11.90
2002,05,13,03,45,11.80
2002,05,13,03,46,11.90
2002,05,13,03,47,11.90
2002,05,13,03,48,11.90
2002,05,13,03,49,11.90
2002,05,13,03,50,11.90
2002,05,13,03,51,11.80
2002,05,13,03,52,11.80
2002,05,13,03,53,11.80
2002,05,13,03,54,11.80
2002,05,13,03,55,11.80
2002,05,13,03,56,11.80
2002,05,13,03,57,11.80
2002,05,13,03,58,11.80
2002,05,13,03,59,11.80
2002,05,13,04,00,11.80
2002,05,13,04,01,11.80
2002,05,13,04,02,11.80
2002,05,13,04,03,11.80
2002,05,13,04,04,11.80
2002,05,13,04,05,11.70
2002,05,13,04,06,11.70
2002,05,13,04,07,11.70
2002,05,13,04,08,11.70
2002,05,13,04,09,11.70
2002,05,13,04,10,11.70
2002,05,13,04,11,11.70
2002,05,13,04,12,11.70
2002,05,13,04,13,11.70
2002,05,13,04,14,11.70
2002,05,13,04,15,11.70
2002,05,13,04,16,11.70
2002,05,13,04,17,11.70
2002,05,13,04,18,11.70
2002,05,13,04,19,11.70
2002,05,13,04,20,11.60
2002,05,13,04,21,11.60
2002,05,13,04,22,11.60
2002,05,13,04,23,11.60
2002,05,13,04,24,11.60
2002,05,13,04,25,11.60
2002,05,13,04,26,11.60
2002,05,13,04,27,11.60
2002,05,13,04,28,11.60
2002,05,13,04,29,11.60
2002,05,13,04,30,11.60
2002,05,13,04,31,11.60
2002,05,13,04,32,11.60
2002,05,13,04,33,11.60
2002,05,13,04,34,11.60
2002,05,13,04,35,11.60
2002,05,13,04,36,11.60
2002,05,13,04,37,11.60
2002,05,13,04,38,11.60
2002,05,13,04,39,11.60
2002,05,13,04,40,11.60
2002,05,13,04,41,11.60
2002,05,13,04,42,11.60
2002,05,13,04,43,11.60
2002,05,13,04,44,11.60
2002,05,13,04,45,11.60
2002,05,13,04,46,11.60
2002,05,13,04,47,11.60
2002,05,13,04,48,11.60
2002,05,13,04,49,11.60
2002,05,13,04,50,11.60
2002,05,13,04,51,11.60
2002,05,13,04,52,11.60
2002,05,13,04,53,11.60
2002,05,13,04,54,11.60
2002,05,13,04,55,11.60
2002,05,13,04,56,11.60
2002,05,13,04,57,11.60
2002,05,13,04,58,11.60
2002,05,13,04,59,11.60
2002,05,13,05,00,11.60
2002,05,13,05,01,11.60
2002,05,13,05,02,11.60
2002,05,13,05,03,11.50
2002,05,13,05,04,11.50
2002,05,13,05,05,11.50
2002,05,13,05,06,11.50
2002,05,13,05,07,11.50
2002,05,13,05,08,11.60
2002,05,13,05,09,11.50
2002,05,13,05,10,11.50
2002,05,13,05,11,11.50
2002,05,13,05,12,11.40
2002,05,13,05,13,11.50
2002,05,13,05,14,11.60
2002,05,13,05,15,11.60
2002,05,13,05,16,11.60
2002,05,13,05,17,11.60
2002,05,13,05,18,11.60
2002,05,13,05,19,11.60
2002,05,13,05,20,11.60
2002,05,13,05,21,11.60
2002,05,13,05,22,11.60
2002,05,13,05,23,11.50
2002,05,13,05,24,11.40
2002,05,13,05,25,11.40
2002,05,13,05,26,11.40
2002,05,13,05,27,11.40
2002,05,13,05,28,11.40
2002,05,13,05,29,11.40
2002,05,13,05,30,11.40
2002,05,13,05,31,11.40
2002,05,13,05,32,11.30
2002,05,13,05,33,11.20
2002,05,13,05,34,11.20
2002,05,13,05,35,11.10
2002,05,13,05,36,11.10
2002,05,13,05,37,11.00
2002,05,13,05,38,10.90
2002,05,13,05,39,10.90
2002,05,13,05,40,10.90
2002,05,13,05,41,10.90
2002,05,13,05,42,10.80
2002,05,13,05,43,10.80
2002,05,13,05,44,10.80
2002,05,13,05,45,10.80
2002,05,13,05,46,10.80
2002,05,13,05,47,10.70
2002,05,13,05,48,10.70
2002,05,13,05,49,10.70
2002,05,13,05,50,10.70
2002,05,13,05,51,10.70
2002,05,13,05,52,10.70
2002,05,13,05,53,10.60
2002,05,13,05,54,10.60
2002,05,13,05,55,10.60
2002,05,13,05,56,10.60
2002,05,13,05,57,10.60
2002,05,13,05,58,10.60
2002,05,13,05,59,10.60
2002,05,13,06,00,10.70
2002,05,13,06,01,10.70
2002,05,13,06,02,10.70
2002,05,13,06,03,10.70
2002,05,13,06,04,10.70
2002,05,13,06,05,10.70
2002,05,13,06,06,10.70
2002,05,13,06,07,10.70
2002,05,13,06,08,10.80
2002,05,13,06,09,10.80
2002,05,13,06,10,10.80
2002,05,13,06,11,10.80
2002,05,13,06,12,10.90
2002,05,13,06,13,10.90
2002,05,13,06,14,10.90
2002,05,13,06,15,10.90
2002,05,13,06,16,10.90
2002,05,13,06,17,10.90
2002,05,13,06,18,10.90
2002,05,13,06,19,10.90
2002,05,13,06,20,10.90
2002,05,13,06,21,10.90
2002,05,13,06,22,10.90
2002,05,13,06,23,10.90
2002,05,13,06,24,10.90
2002,05,13,06,25,10.90
2002,05,13,06,26,10.90
2002,05,13,06,27,10.90
2002,05,13,06,28,10.90
2002,05,13,06,29,10.90
2002,05,13,06,30,10.90
2002,05,13,06,31,10.90
2002,05,13,06,32,10.90
2002,05,13,06,33,10.90
2002,05,13,06,34,10.90
2002,05,13,06,35,10.90
2002,05,13,06,36,10.90
2002,05,13,06,37,10.90
2002,05,13,06,38,10.90
2002,05,13,06,39,10.90
2002,05,13,06,40,11.00
2002,05,13,06,41,11.10
2002,05,13,06,42,11.10
2002,05,13,06,43,11.10
2002,05,13,06,44,11.20
2002,05,13,06,45,11.30
2002,05,13,06,46,11.40
2002,05,13,06,47,11.40
2002,05,13,06,48,11.40
2002,05,13,06,49,11.60
2002,05,13,06,50,11.60
2002,05,13,06,51,11.70
2002,05,13,06,52,11.70
2002,05,13,06,53,11.80
2002,05,13,06,54,11.80
2002,05,13,06,55,11.80
2002,05,13,06,56,11.80
2002,05,13,06,57,11.80
2002,05,13,06,58,11.80
2002,05,13,06,59,11.80
2002,05,13,07,00,11.80
2002,05,13,07,01,11.80
2002,05,13,07,02,11.80
2002,05,13,07,03,11.80
2002,05,13,07,04,11.80
2002,05,13,07,05,11.80
2002,05,13,07,06,11.80
2002,05,13,07,07,11.80
2002,05,13,07,08,11.80
2002,05,13,07,09,11.80
2002,05,13,07,10,11.80
2002,05,13,07,11,11.80
2002,05,13,07,12,11.90
2002,05,13,07,13,11.90
2002,05,13,07,14,11.90
2002,05,13,07,15,11.90
2002,05,13,07,16,11.90
2002,05,13,07,17,11.90
2002,05,13,07,18,11.90
2002,05,13,07,19,11.90
2002,05,13,07,20,11.90
2002,05,13,07,21,11.90
2002,05,13,07,22,11.90
2002,05,13,07,23,11.80
2002,05,13,07,24,11.80
2002,05,13,07,25,11.80
2002,05,13,07,26,11.80
2002,05,13,07,27,11.70
2002,05,13,07,28,11.80
2002,05,13,07,29,11.70
2002,05,13,07,30,11.70
2002,05,13,07,31,11.70
2002,05,13,07,32,11.70
2002,05,13,07,33,11.70
2002,05,13,07,34,11.70
2002,05,13,07,35,11.70
2002,05,13,07,36,11.70
2002,05,13,07,37,11.70
2002,05,13,07,38,11.70
2002,05,13,07,39,11.70
2002,05,13,07,40,11.70
2002,05,13,07,41,11.80
2002,05,13,07,42,11.80
2002,05,13,07,43,11.80
2002,05,13,07,44,11.80
2002,05,13,07,45,11.80
2002,05,13,07,46,11.80
2002,05,13,07,47,11.80
2002,05,13,07,48,11.80
2002,05,13,07,49,11.80
2002,05,13,07,50,11.80
2002,05,13,07,51,11.80
2002,05,13,07,52,11.80
2002,05,13,07,53,11.90
2002,05,13,07,54,11.90
2002,05,13,07,55,11.90
2002,05,13,07,56,11.90
2002,05,13,07,57,11.90
2002,05,13,07,58,12.00
2002,05,13,07,59,12.00
2002,05,13,08,00,12.00
2002,05,13,08,01,12.00
2002,05,13,08,02,12.00
2002,05,13,08,03,12.00
2002,05,13,08,04,12.00
2002,05,13,08,05,12.00
2002,05,13,08,06,11.90
2002,05,13,08,07,11.90
2002,05,13,08,08,11.90
2002,05,13,08,09,11.90
2002,05,13,08,10,11.90
2002,05,13,08,11,11.90
2002,05,13,08,12,11.90
2002,05,13,08,13,11.90
2002,05,13,08,14,11.90
2002,05,13,08,15,11.90
2002,05,13,08,16,11.90
2002,05,13,08,17,11.90
2002,05,13,08,18,11.90
2002,05,13,08,19,12.00
2002,05,13,08,20,12.00
2002,05,13,08,21,12.00
2002,05,13,08,22,12.00
2002,05,13,08,23,12.00
2002,05,13,08,24,12.00
2002,05,13,08,25,11.90
2002,05,13,08,26,11.90
2002,05,13,08,27,11.90
2002,05,13,08,28,11.90
2002,05,13,08,29,11.80
2002,05,13,08,30,11.80
2002,05,13,08,31,11.80
2002,05,13,08,32,11.80
2002,05,13,08,33,11.80
2002,05,13,08,34,11.70
2002,05,13,08,35,11.60
2002,05,13,08,36,11.60
2002,05,13,08,37,11.60
2002,05,13,08,38,11.60
2002,05,13,08,39,11.60
2002,05,13,08,40,11.50
2002,05,13,08,41,11.40
2002,05,13,08,42,11.40
2002,05,13,08,43,11.40
2002,05,13,08,44,11.40
2002,05,13,08,45,11.40
2002,05,13,08,46,11.40
2002,05,13,08,47,11.30
2002,05,13,08,48,11.30
2002,05,13,08,49,11.30
2002,05,13,08,50,11.30
2002,05,13,08,51,11.30
2002,05,13,08,52,11.30
2002,05,13,08,53,11.30
2002,05,13,08,54,11.30
2002,05,13,08,55,11.30
2002,05,13,08,56,11.30
2002,05,13,08,57,11.30
2002,05,13,08,58,11.30
2002,05,13,08,59,11.30
2002,05,13,09,00,11.20
2002,05,13,09,01,11.30
2002,05,13,09,02,11.30
2002,05,13,09,03,11.30
2002,05,13,09,04,11.20
2002,05,13,09,05,11.20
2002,05,13,09,06,11.10
2002,05,13,09,07,11.10
2002,05,13,09,08,11.10
2002,05,13,09,09,11.10
2002,05,13,09,10,11.10
2002,05,13,09,11,11.10
2002,05,13,09,12,11.10
2002,05,13,09,13,11.20
2002,05,13,09,14,11.20
2002,05,13,09,15,11.20
2002,05,13,09,16,11.20
2002,05,13,09,17,11.20
2002,05,13,09,18,11.30
2002,05,13,09,19,11.30
2002,05,13,09,20,11.30
2002,05,13,09,21,11.30
2002,05,13,09,22,11.30
2002,05,13,09,23,11.30
2002,05,13,09,24,11.30
2002,05,13,09,25,11.30
2002,05,13,09,26,11.30
2002,05,13,09,27,11.30
2002,05,13,09,28,11.30
2002,05,13,09,29,11.30
2002,05,13,09,30,11.30
2002,05,13,09,31,11.30
2002,05,13,09,32,11.30
2002,05,13,09,33,11.30
2002,05,13,09,34,11.30
2002,05,13,09,35,11.30
2002,05,13,09,36,11.30
2002,05,13,09,37,11.30
2002,05,13,09,38,11.30
2002,05,13,09,39,11.30
2002,05,13,09,40,11.30
2002,05,13,09,41,11.30
2002,05,13,09,42,11.30
2002,05,13,09,43,11.30
2002,05,13,09,44,11.40
2002,05,13,09,45,11.40
2002,05,13,09,46,11.40
2002,05,13,09,47,11.50
2002,05,13,09,48,11.60
2002,05,13,09,49,11.50
2002,05,13,09,50,11.60
2002,05,13,09,51,11.60
2002,05,13,09,52,11.60
2002,05,13,09,53,11.60
2002,05,13,09,54,11.60
2002,05,13,09,55,11.60
2002,05,13,09,56,11.60
2002,05,13,09,57,11.60
2002,05,13,09,58,11.60
2002,05,13,09,59,11.60
2002,05,13,10,00,11.60
2002,05,13,10,01,11.60
2002,05,13,10,02,11.60
2002,05,13,10,03,11.60
2002,05,13,10,04,11.70
2002,05,13,10,05,11.70
2002,05,13,10,06,11.70
2002,05,13,10,07,11.80
2002,05,13,10,08,11.80
2002,05,13,10,09,11.80
2002,05,13,10,10,11.80
2002,05,13,10,11,11.80
2002,05,13,10,12,11.80
2002,05,13,10,13,11.80
2002,05,13,10,14,11.80
2002,05,13,10,15,11.80
2002,05,13,10,16,11.80
2002,05,13,10,17,11.80
2002,05,13,10,18,11.80
2002,05,13,10,19,11.80
2002,05,13,10,20,11.70
2002,05,13,10,21,11.80
2002,05,13,10,22,11.80
2002,05,13,10,23,11.80
2002,05,13,10,24,11.80
2002,05,13,10,25,11.90
2002,05,13,10,26,11.90
2002,05,13,10,27,11.90
2002,05,13,10,28,11.90
2002,05,13,10,29,11.90
2002,05,13,10,30,12.00
2002,05,13,10,31,12.00
2002,05,13,10,32,12.00
2002,05,13,10,33,11.90
2002,05,13,10,34,11.90
2002,05,13,10,35,11.90
2002,05,13,10,36,11.90
2002,05,13,10,37,11.90
2002,05,13,10,38,11.90
2002,05,13,10,39,11.90
2002,05,13,10,40,11.90
2002,05,13,10,41,11.90
2002,05,13,10,42,11.90
2002,05,13,10,43,11.90
2002,05,13,10,44,12.00
2002,05,13,10,45,12.00
2002,05,13,10,46,12.00
2002,05,13,10,47,12.00
2002,05,13,10,48,11.90
2002,05,13,10,49,11.90
2002,05,13,10,50,11.90
2002,05,13,10,51,12.00
2002,05,13,10,52,12.00
2002,05,13,10,53,12.00
2002,05,13,10,54,11.90
2002,05,13,10,55,11.90
2002,05,13,10,56,11.90
2002,05,13,10,57,11.90
2002,05,13,10,58,11.80
2002,05,13,10,59,11.90
2002,05,13,11,00,11.90
2002,05,13,11,01,11.90
2002,05,13,11,02,11.90
2002,05,13,11,03,11.80
2002,05,13,11,04,11.80
2002,05,13,11,05,11.80
2002,05,13,11,06,11.80
2002,05,13,11,07,11.80
2002,05,13,11,08,11.80
2002,05,13,11,09,11.90
2002,05,13,11,10,11.90
2002,05,13,11,11,11.90
2002,05,13,11,12,11.90
2002,05,13,11,13,11.90
2002,05,13,11,14,11.90
2002,05,13,11,15,11.90
2002,05,13,11,16,11.90
2002,05,13,11,17,11.90
2002,05,13,11,18,11.90
2002,05,13,11,19,11.90
2002,05,13,11,20,11.90
2002,05,13,11,21,11.90
2002,05,13,11,22,11.80
2002,05,13,11,23,11.80
2002,05,13,11,24,11.80
2002,05,13,11,25,11.80
2002,05,13,11,26,11.80
2002,05,13,11,27,11.80
2002,05,13,11,28,11.70
2002,05,13,11,29,11.70
2002,05,13,11,30,11.70
2002,05,13,11,31,11.70
2002,05,13,11,32,11.70
2002,05,13,11,33,11.70
2002,05,13,11,34,11.70
2002,05,13,11,35,11.70
2002,05,13,11,36,11.60
2002,05,13,11,37,11.70
2002,05,13,11,38,11.60
2002,05,13,11,39,11.60
2002,05,13,11,40,11.60
2002,05,13,11,41,11.60
2002,05,13,11,42,11.60
2002,05,13,11,43,11.60
2002,05,13,11,44,11.60
2002,05,13,11,45,11.60
2002,05,13,11,46,11.60
2002,05,13,11,47,11.60
2002,05,13,11,48,11.60
2002,05,13,11,49,11.60
2002,05,13,11,50,11.60
2002,05,13,11,51,11.60
2002,05,13,11,52,11.60
2002,05,13,11,53,11.60
2002,05,13,11,54,11.60
2002,05,13,11,55,11.60
2002,05,13,11,56,11.60
2002,05,13,11,57,11.60
2002,05,13,11,58,11.60
2002,05,13,11,59,11.60
2002,05,13,12,00,11.60
2002,05,13,12,01,11.60
2002,05,13,12,02,11.60
2002,05,13,12,03,11.60
2002,05,13,12,04,11.60
2002,05,13,12,05,11.60
2002,05,13,12,06,11.60
2002,05,13,12,07,11.70
2002,05,13,12,08,11.80
2002,05,13,12,09,11.80
2002,05,13,12,10,11.80
2002,05,13,12,11,11.90
2002,05,13,12,12,11.90
2002,05,13,12,13,11.90
2002,05,13,12,14,12.00
2002,05,13,12,15,12.10
2002,05,13,12,16,12.10
2002,05,13,12,17,12.10
2002,05,13,12,18,12.10
2002,05,13,12,19,12.20
2002,05,13,12,20,12.20
2002,05,13,12,21,12.20
2002,05,13,12,22,12.20
2002,05,13,12,23,12.30
2002,05,13,12,24,12.30
2002,05,13,12,25,12.30
2002,05,13,12,26,12.30
2002,05,13,12,27,12.30
2002,05,13,12,28,12.30
2002,05,13,12,29,12.40
2002,05,13,12,30,12.50
2002,05,13,12,31,12.50
2002,05,13,12,32,12.50
2002,05,13,12,33,12.50
2002,05,13,12,34,12.50
2002,05,13,12,35,12.50
2002,05,13,12,36,12.40
2002,05,13,12,37,12.40
2002,05,13,12,38,12.40
2002,05,13,12,39,12.50
2002,05,13,12,40,12.50
2002,05,13,12,41,12.50
2002,05,13,12,42,12.50
2002,05,13,12,43,12.40
2002,05,13,12,44,12.40
2002,05,13,12,45,12.40
2002,05,13,12,46,12.40
2002,05,13,12,47,12.30
2002,05,13,12,48,12.30
2002,05,13,12,49,12.40
2002,05,13,12,50,12.50
2002,05,13,12,51,12.50
2002,05,13,12,52,12.50
2002,05,13,12,53,12.50
2002,05,13,12,54,12.50
2002,05,13,12,55,12.40
2002,05,13,12,56,12.30
2002,05,13,12,57,12.30
2002,05,13,12,58,12.30
2002,05,13,12,59,12.20
2002,05,13,13,00,12.20
2002,05,13,13,01,12.10
2002,05,13,13,02,12.10
2002,05,13,13,03,12.20
2002,05,13,13,04,12.20
2002,05,13,13,05,12.20
2002,05,13,13,06,12.20
2002,05,13,13,07,12.30
2002,05,13,13,08,12.30
2002,05,13,13,09,12.30
2002,05,13,13,10,12.40
2002,05,13,13,11,12.40
2002,05,13,13,12,12.50
2002,05,13,13,13,12.60
2002,05,13,13,14,12.60
2002,05,13,13,15,12.60
2002,05,13,13,16,12.70
2002,05,13,13,17,12.70
2002,05,13,13,18,12.70
2002,05,13,13,19,12.70
2002,05,13,13,20,12.70
2002,05,13,13,21,12.60
2002,05,13,13,22,12.60
2002,05,13,13,23,12.60
2002,05,13,13,24,12.50
2002,05,13,13,25,12.40
2002,05,13,13,26,12.30
2002,05,13,13,27,12.30
2002,05,13,13,28,12.30
2002,05,13,13,29,12.30
2002,05,13,13,30,12.30
2002,05,13,13,31,12.40
2002,05,13,13,32,12.30
2002,05,13,13,33,12.30
2002,05,13,13,34,12.30
2002,05,13,13,35,12.30
2002,05,13,13,36,12.30
2002,05,13,13,37,12.30
2002,05,13,13,38,12.30
2002,05,13,13,39,12.40
2002,05,13,13,40,12.40
2002,05,13,13,41,12.50
2002,05,13,13,42,12.50
2002,05,13,13,43,12.50
2002,05,13,13,44,12.40
2002,05,13,13,45,12.30
2002,05,13,13,46,12.30
2002,05,13,13,47,12.30
2002,05,13,13,48,12.20
2002,05,13,13,49,12.20
2002,05,13,13,50,12.20
2002,05,13,13,51,12.30
2002,05,13,15,02,12.20
2002,05,13,15,03,12.30
2002,05,13,15,04,12.20
2002,05,13,15,05,12.20
2002,05,13,15,06,12.20
2002,05,13,15,07,12.20
2002,05,13,15,08,12.30
2002,05,13,15,09,12.20
2002,05,13,15,10,12.20
2002,05,13,15,11,12.10
2002,05,13,15,12,12.10
2002,05,13,15,13,12.10
2002,05,13,15,14,12.10
2002,05,13,15,15,12.10
2002,05,13,15,16,12.10
2002,05,13,15,17,12.10
2002,05,13,15,18,12.20
2002,05,13,15,19,12.20
2002,05,13,15,20,12.30
2002,05,13,15,21,12.30
2002,05,13,15,22,12.30
2002,05,13,15,23,12.20
2002,05,13,15,24,12.10
2002,05,13,15,25,12.10
2002,05,13,15,26,12.10
2002,05,13,15,27,12.10
2002,05,13,15,28,12.00
2002,05,13,15,29,12.10
2002,05,13,15,30,12.10
2002,05,13,15,31,12.10
2002,05,13,15,32,12.10
2002,05,13,15,33,12.00
2002,05,13,15,34,12.10
2002,05,13,15,35,12.10
2002,05,13,15,36,12.10
2002,05,13,15,37,12.20
2002,05,13,15,38,12.20
2002,05,13,15,39,12.10
2002,05,13,15,40,12.10
2002,05,13,15,41,12.10
2002,05,13,15,42,12.00
2002,05,13,15,43,12.00
2002,05,13,15,44,11.90
2002,05,13,15,45,11.90
2002,05,13,15,46,11.90
2002,05,13,15,47,11.80
2002,05,13,15,48,11.80
2002,05,13,15,49,11.80
2002,05,13,15,50,11.80
2002,05,13,15,51,11.80
2002,05,13,15,52,11.80
2002,05,13,15,53,11.70
2002,05,13,15,54,11.70
2002,05,13,15,55,11.70
2002,05,13,15,56,11.70
2002,05,13,15,57,11.70
2002,05,13,15,58,11.60
2002,05,13,15,59,11.60
2002,05,13,16,00,11.60
2002,05,13,16,01,11.60
2002,05,13,16,02,11.60
2002,05,13,16,03,11.60
2002,05,13,16,04,11.60
2002,05,13,16,05,11.60
2002,05,13,16,06,11.60
2002,05,13,16,07,11.60
2002,05,13,16,08,11.60
2002,05,13,16,09,11.50
2002,05,13,16,10,11.40
2002,05,13,16,11,11.40
2002,05,13,16,12,11.40
2002,05,13,16,13,11.40
2002,05,13,16,14,11.40
2002,05,13,16,15,11.40
2002,05,13,16,16,11.40
2002,05,13,16,17,11.40
2002,05,13,16,18,11.40
2002,05,13,16,19,11.40
2002,05,13,16,20,11.50
2002,05,13,16,21,11.50
2002,05,13,16,22,11.50
2002,05,13,16,23,11.50
2002,05,13,16,24,11.50
2002,05,13,16,25,11.50
2002,05,13,16,26,11.60
2002,05,13,16,27,11.60
2002,05,13,16,28,11.60
2002,05,13,16,29,11.50
2002,05,13,16,30,11.50
2002,05,13,16,31,11.50
2002,05,13,16,32,11.60
2002,05,13,16,33,11.60
2002,05,13,16,34,11.50
2002,05,13,16,35,11.40
2002,05,13,16,36,11.40
2002,05,13,16,37,11.30
2002,05,13,16,38,11.40
2002,05,13,16,39,11.40
2002,05,13,16,40,11.30
2002,05,13,16,41,11.10
2002,05,13,16,42,11.10
2002,05,13,16,43,11.10
2002,05,13,16,44,11.10
2002,05,13,16,45,11.10
2002,05,13,16,46,11.10
2002,05,13,16,47,11.00
2002,05,13,16,48,11.10
2002,05,13,16,49,11.10
2002,05,13,16,50,11.10
2002,05,13,16,51,11.10
2002,05,13,16,52,11.10
2002,05,13,16,53,11.10
2002,05,13,16,54,11.10
2002,05,13,16,55,11.10
2002,05,13,16,56,11.10
2002,05,13,16,57,11.10
2002,05,13,16,58,11.10
2002,05,13,16,59,11.10
2002,05,13,17,00,11.10
2002,05,13,17,01,11.10
2002,05,13,17,02,11.10
2002,05,13,17,03,11.10
2002,05,13,17,04,11.10
2002,05,13,17,05,11.10
2002,05,13,17,06,11.10
2002,05,13,17,07,11.10
2002,05,13,17,08,11.10
2002,05,13,17,09,11.10
2002,05,13,17,10,11.10
2002,05,13,17,11,11.10
2002,05,13,17,12,11.10
2002,05,13,17,13,11.10
2002,05,13,17,14,11.00
2002,05,13,17,15,10.90
2002,05,13,17,16,10.90
2002,05,13,17,17,10.90
2002,05,13,17,18,10.90
2002,05,13,17,19,10.90
2002,05,13,17,20,10.90
2002,05,13,17,21,10.90
2002,05,13,17,22,10.90
2002,05,13,17,23,11.00
2002,05,13,17,24,11.00
2002,05,13,17,25,11.00
2002,05,13,17,26,10.90
2002,05,13,17,27,10.90
2002,05,13,17,28,10.80
2002,05,13,17,29,10.80
2002,05,13,17,30,10.80
2002,05,13,17,31,10.80
2002,05,13,17,32,10.80
2002,05,13,17,33,10.70
2002,05,13,17,34,10.70
2002,05,13,17,35,10.70
2002,05,13,17,36,10.70
2002,05,13,17,37,10.80
2002,05,13,17,38,10.80
2002,05,13,17,39,10.80
2002,05,13,17,40,10.90
2002,05,13,17,41,10.80
2002,05,13,17,42,10.80
2002,05,13,17,43,10.80
2002,05,13,17,44,10.80
2002,05,13,17,45,10.80
2002,05,13,17,46,10.80
2002,05,13,17,47,10.80
2002,05,13,17,48,10.80
2002,05,13,17,49,10.80
2002,05,13,17,50,10.80
2002,05,13,17,51,10.70
2002,05,13,17,52,10.70
2002,05,13,17,53,10.70
2002,05,13,17,54,10.60
2002,05,13,17,55,10.60
2002,05,13,17,56,10.50
2002,05,13,17,57,10.40
2002,05,13,17,58,10.40
2002,05,13,17,59,10.40
2002,05,13,18,00,10.40
2002,05,13,18,01,10.30
2002,05,13,18,02,10.40
2002,05,13,18,03,10.40
2002,05,13,18,04,10.40
2002,05,13,18,05,10.40
2002,05,13,18,06,10.50
2002,05,13,18,07,10.40
2002,05,13,18,08,10.30
2002,05,13,18,09,10.20
2002,05,13,18,10,10.10
2002,05,13,18,11,10.10
2002,05,13,18,12,10.00
2002,05,13,18,13,9.90
2002,05,13,18,14,9.90
2002,05,13,18,15,9.90
2002,05,13,18,16,9.90
2002,05,13,18,17,9.90
2002,05,13,18,18,9.80
2002,05,13,18,19,9.80
2002,05,13,18,20,9.70
2002,05,13,18,21,9.70
2002,05,13,18,22,9.70
2002,05,13,18,23,9.80
2002,05,13,18,24,9.70
2002,05,13,18,25,9.70
2002,05,13,18,26,9.80
2002,05,13,18,27,9.70
2002,05,13,18,28,9.80
2002,05,13,18,29,9.70
2002,05,13,18,30,9.70